#timestamp,LO_Frequency,Hit 
1506060015.9,286046997.7,N
1506060035.7,286046996.1,N
1506060055.5,286046995.8,N
1506060075.4,286046997.8,N
1506060095.2,286047001.2,N
1506060115.0,286047000.8,N
1506060115.9,286047000.8,N
1506060135.8,286047000.6,N
1506060155.6,286047000.1,N
1506060175.4,286046999.9,N
1506060195.3,286047002.1,N
1506060215.1,286047001.4,N
1506060216.0,286047001.4,N
1506060235.8,286047001.6,N
1506060255.7,286047004.0,N
1506060275.5,286046999.7,N
1506060295.3,286047000.3,N
1506060315.1,286046998.6,N
1506060335.9,286046995.2,N
1506060355.7,286046998.0,N
1506060375.5,286046994.9,N
1506060395.4,286046999.6,N
1506060415.2,286046997.5,N
1506060435.0,286046995.4,N
1506060435.9,286046995.4,N
1506060455.8,286046996.5,N
1506060475.6,286046998.1,N
1506060495.4,286047002.3,N
1506060515.3,286047001.4,N
1506060535.1,286047001.4,N
1506060536.0,286047001.4,N
1506060555.8,286047000.4,N
1506060575.7,286046999.8,N
1506060595.5,286047003.9,N
1506060615.3,286047002.9,N
1506060635.2,286047003.0,N
1506060655.9,286047006.0,N
1506060675.7,286047001.3,N
1506060695.5,286046999.7,N
1506060715.4,286047003.2,N
1506060735.2,286047004.1,N
1506060755.0,286047002.1,N
1506060755.9,286047002.1,N
1506060775.8,286047003.0,N
1506060795.6,286047002.2,N
1506060815.4,286046999.9,N
1506060835.3,286047003.1,N
1506060855.1,286047003.1,N
1506060856.0,286047003.1,N
1506060875.8,286047001.0,N
1506060895.7,286047000.7,N
1506060915.5,286046999.8,N
1506060935.3,286046996.8,N
1506060955.2,286046995.6,N
1506060975.9,286046994.9,N
1506060995.7,286047001.2,N
1506061015.5,286046999.2,N
1506061035.4,286046999.2,N
1506061055.2,286046997.1,N
1506061075.0,286046999.6,N
1506061075.9,286046999.6,N
1506061095.8,286047001.0,N
1506061115.6,286046999.9,N
1506061135.4,286046998.5,N
1506061155.3,286046996.8,N
1506061175.1,286046997.1,N
1506061195.8,286046994.9,N
1506061215.7,286046995.2,N
1506061235.5,286046995.6,N
1506061255.3,286046993.1,N
1506061275.2,286046990.4,P
1506061295.9,286046991.7,N
1506061315.7,286046993.1,N
1506061335.6,286046992.4,N
1506061355.4,286046994.0,N
1506061375.2,286046994.7,N
1506061395.1,286046991.4,P
1506061396.0,286046991.4,P
1506061415.8,286046996.0,P
1506061435.6,286046995.9,N
1506061455.5,286046999.1,N
1506061475.3,286047000.0,N
1506061495.1,286047004.1,N
1506061515.9,286047006.1,N
1506061535.7,286047006.2,N
1506061555.5,286047010.4,N
1506061575.3,286047007.8,N
1506061595.2,286047007.3,N
1506061615.0,286047005.7,N
1506061615.9,286047005.7,N
1506061635.7,286047010.1,N
1506061655.6,286047012.0,N
1506061675.4,286047011.8,N
1506061695.2,286047012.1,N
1506061715.1,286047008.2,N
1506061716.0,286047008.2,N
1506061735.8,286047010.4,N
1506061755.6,286047009.5,N
1506061775.5,286047007.9,N
1506061795.3,286047006.3,N
1506061815.1,286047007.3,N
1506061835.8,286047003.6,N
1506061855.7,286047004.7,N
1506061875.5,286047007.9,N
1506061895.3,286047006.3,N
1506061915.2,286047006.4,N
1506061935.9,286047008.8,N
1506061955.7,286047008.8,N
1506061975.6,286047003.4,N
1506061995.4,286047004.1,N
1506062015.2,286047005.4,N
1506062035.1,286047006.9,N
1506062036.0,286047006.9,N
1506062055.8,286047010.2,P
1506062075.6,286047000.1,N
1506062095.5,286047000.9,N
1506062115.3,286047001.6,N
1506062135.1,286047004.0,N
1506062155.9,286047004.2,N
1506062175.7,286047003.6,N
1506062195.5,286047002.1,N
1506062215.4,286047002.0,N
1506062235.2,286047001.2,N
1506062255.0,286046999.2,N
1506062255.9,286046999.2,N
1506062275.7,286047001.0,N
1506062295.6,286047004.4,N
1506062315.4,286047005.8,N
1506062335.2,286047007.4,N
1506062355.1,286047007.3,N
1506062356.0,286047007.3,N
1506062375.8,286047008.8,N
1506062395.6,286047006.1,N
1506062415.5,286047008.3,N
1506062435.3,286047009.8,N
1506062455.1,286047010.8,P
1506062475.9,286047004.4,N
1506062495.7,286047004.7,N
1506062515.5,286047007.2,N
1506062535.4,286047005.5,N
1506062555.2,286047002.0,N
1506062575.0,286047004.1,N
1506062575.9,286047004.1,N
1506062595.8,286047004.1,N
1506062615.6,286047003.6,N
1506062635.4,286047003.0,N
1506062655.3,286047004.1,N
1506062675.1,286047005.9,N
1506062676.0,286047005.9,N
1506062695.8,286047005.1,N
1506062715.7,286047005.4,N
1506062735.5,286047003.8,N
1506062755.3,286047002.6,N
1506062775.1,286047001.7,N
1506062795.9,286047006.0,P
1506062815.7,286047001.1,N
1506062835.6,286046998.6,N
1506062855.4,286046998.3,N
1506062875.2,286046995.9,N
1506062895.0,286046993.3,N
1506062895.9,286046993.3,N
1506062915.8,286046996.3,N
1506062935.6,286046994.4,N
1506062955.4,286046988.5,N
1506062975.3,286046990.3,N
1506062995.1,286046994.5,N
1506063015.8,286046993.5,N
1506063035.7,286046992.3,N
1506063055.5,286046991.5,N
1506063075.3,286046990.3,N
1506063095.2,286046992.8,N
1506063115.9,286046994.3,N
1506063135.7,286046995.3,N
1506063155.5,286046996.1,N
1506063175.4,286046994.1,N
1506063195.2,286046990.3,N
1506063215.0,286046991.9,N
1506063215.9,286046991.9,N
1506063235.8,286046994.1,N
1506063255.6,286046995.6,N
1506063275.4,286046997.5,N
1506063295.3,286046996.5,N
1506063315.1,286046997.3,N
1506063316.0,286046997.3,N
1506063335.8,286046995.7,N
1506063355.7,286046996.1,N
1506063375.5,286046992.8,N
1506063395.3,286046994.5,N
1506063415.2,286046992.9,P
1506063435.9,286046998.5,N
1506063455.7,286046998.9,N
1506063475.6,286046997.0,N
1506063495.4,286046999.0,N
1506063515.2,286047000.2,N
1506063535.1,286047002.1,N
1506063536.0,286047002.1,N
1506063555.8,286047005.6,N
1506063575.6,286047006.0,N
1506063595.4,286047002.5,N
